Tracking 22879 objects as of 22-Apr-2021
HD Live streaming from Space Station
objects crossing your sky now

CZ-11 R/B

Track CZ-11 R/B now!
10-day predictions


NORAD ID: 43872
Int'l Code: 2018-108B
Perigee: 652.5 km
Apogee: 1,143.5 km
Inclination: 100.4 °
Period: 102.8 minutes
Semi major axis: 7269 km
RCS: Unknown
Launch date: December 21, 2018
Source: People's Republic of China (PRC)
Launch site: Jiuquan Satellite Launch Center, China (JSC)

Note: This is a ROCKET BODY
aabbcc
Your satellite tracking list
Your tracking list is empty




NASA's NSSDC Master Catalog

Two Line Element Set (TLE):
1 43872U 18108B   21111.81514678  .00000452  00000-0  20989-3 0  9990
2 43872 100.3863 250.8843 0337759 226.3053 130.9667 14.00841985119274
Source of the keplerian elements: AFSPC